Location: Newark
(57.9988°N, 22.0181°E)
Time: 21:25:24
(UTC+00:00)

N. Korean satellite - Visible Passes

Search period start: 19 September 2021 00:00
Search period end: 29 September 2021 00:00
Orbit: 448 x 499 km, 97.3° (Epoch: 19 September)

Date Brightness Start Highest point End Pass type
(mag) Time Alt. Az. Time Alt. Az. Time Alt. Az.
19 Sep 9.4 03:09:35 10° NE 03:12:21 22° E 03:15:09 10° SE visible
20 Sep 9.9 02:42:44 10° ENE 02:44:20 13° E 02:45:56 10° ESE visible
22 Sep 9.0 03:19:23 10° NE 03:22:25 27° E 03:25:29 10° SSE visible
23 Sep 9.7 02:52:14 10° NE 02:54:26 16° E 02:56:38 10° SE visible
25 Sep 8.6 03:29:11 10° NNE 03:32:26 33° E 03:35:42 10° SSE visible
26 Sep 9.6 03:01:50 10° NE 03:04:27 19° E 03:07:05 10° SE visible
27 Sep 10.1 02:35:18 10° ENE 02:36:22 11° E 02:37:26 10° ESE visible
28 Sep 8.1 03:38:58 10° NNE 03:42:23 41° E 03:45:48 10° S visible
